This is the latest recevied weather packets stored in our database for station/object KC1TLF-15. If no packets are shown the sender has not sent any weather packets the latest 10 day(s).
| Time | Temp. | Humidity | Pressure | Rain* | Wind** | Luminosity | Snow |
|---|---|---|---|---|---|---|---|
| 1777842069 | 11.67° C | 40% | 1014.7 hPa | 0 mm | 1.79 m/s, 21° | 126 W/m² | - |
| 1777841471 | 11.11° C | 42% | 1014.6 hPa | 0 mm | 1.34 m/s, 345° | 149 W/m² | - |
| 1777840870 | 11.11° C | 41% | 1014.4 hPa | 0 mm | 1.34 m/s, 311° | 131 W/m² | - |
| 1777840270 | 11.11° C | 42% | 1014.3 hPa | 0 mm | 1.34 m/s, 327° | 128 W/m² | - |
| 1777839671 | 11.67° C | 41% | 1014.2 hPa | 0 mm | 1.79 m/s, 296° | 103 W/m² | - |
| 1777839070 | 11.67° C | 38% | 1014.2 hPa | 0 mm | 0.89 m/s, 321° | 132 W/m² | - |
| 1777838470 | 11.67° C | 40% | 1014 hPa | 0 mm | 2.24 m/s, 300° | 135 W/m² | - |
| 1777837871 | 11.67° C | 37% | 1014.2 hPa | 0 mm | 2.24 m/s, 304° | 149 W/m² | - |
| 1777837270 | 11.67° C | 41% | 1014.1 hPa | 0 mm | 1.79 m/s, 295° | 210 W/m² | - |
| 1777836671 | 11.67° C | 41% | 1014.2 hPa | 0 mm | 1.79 m/s, 315° | 140 W/m² | - |
| 1777836069 | 11.67° C | 42% | 1014.2 hPa | 0 mm | 1.34 m/s, 312° | 194 W/m² | - |
| 1777835470 | 11.67° C | 46% | 1014.3 hPa | 0 mm | 0.89 m/s, 309° | 191 W/m² | - |
| 1777834871 | 11.11° C | 45% | 1014.4 hPa | 0 mm | 1.79 m/s, 264° | 174 W/m² | - |
| 1777834270 | 11.11° C | 45% | 1014.4 hPa | 0 mm | 2.68 m/s, 313° | 151 W/m² | - |
| 1777833671 | 11.11° C | 48% | 1014.2 hPa | 0 mm | 1.79 m/s, 346° | - | - |
| 1777833069 | 11.11° C | 49% | 1014.4 hPa | 0 mm | 1.79 m/s, 310° | 145 W/m² | - |
| 1777832471 | 12.22° C | 50% | 1014.2 hPa | 0 mm | 1.34 m/s, 304° | 242 W/m² | - |
| 1777831871 | 11.67° C | 49% | 1014.3 hPa | 0 mm | 1.79 m/s, 337° | 279 W/m² | - |
| 1777831270 | 11.11° C | 49% | 1014.3 hPa | 0 mm | 1.79 m/s, 325° | 247 W/m² | - |
| 1777830670 | 11.11° C | 48% | 1014.4 hPa | 0 mm | 0.89 m/s, 298° | 311 W/m² | - |
| 1777830069 | 10° C | 49% | 1014.5 hPa | 0 mm | 2.68 m/s, 292° | 267 W/m² | - |
| 1777829470 | 10° C | 51% | 1014.4 hPa | 0 mm | 1.34 m/s, 287° | 226 W/m² | - |
| 1777828871 | 10° C | 53% | 1014.3 hPa | 0 mm | 2.68 m/s, 300° | 100 W/m² | - |
| 1777828270 | 10° C | 55% | 1014.1 hPa | 0 mm | 1.34 m/s, 322° | 163 W/m² | - |
| 1777827676 | 10.56° C | 55% | 1014.2 hPa | 0 mm | 2.24 m/s, 294° | 217 W/m² | - |
* Rain latest hour (hover to see other rain measurements)
** Current wind speed in m/s (hover to see current wind gust speed)